EA3CD Weather Reports


time (UTC)temp
F
wind
direction
speed
knots
gust
knots
rain 1hr
in
rain 24hr
in
rain mn
in
humidity
%
barometer
mb
20260504192102 63 280 4.3 8.7 0.04 0.04 0.04 98 1007.5
20260504191801 63 270 6.1 8.7 0.04 0.04 0.04 98 1007.5
20260504191502 64 247 4.3 5.2 0.00 0.00 0.00 98 1007.5
20260504191201 64 243 2.6 5.2 0.00 0.00 0.00 98 1007.5
20260504190901 64 243 4.3 5.2 0.00 0.00 0.00 98 1007.5
20260504190602 64 248 5.2 5.2 0.00 0.00 0.00 98 1007.5
20260504190302 64 247 1.7 4.3 0.00 0.00 0.00 98 1007.5
20260504185701 64 253 4.3 4.3 0.00 0.00 0.00 98 1007.5
20260504185402 64 254 2.6 5.2 0.00 0.00 0.00 98 1007.5
20260504185101 64 259 0.0 5.2 0.00 0.00 0.00 98 1007.5
20260504184802 64 262 1.7 5.2 0.00 0.00 0.00 98 1007.5
20260504184502 64 256 4.3 5.2 0.00 0.00 0.00 98 1007.5
20260504184202 64 255 0.9 3.5 0.00 0.00 0.00 98 1007.5
20260504183901 64 247 0.9 4.3 0.00 0.00 0.00 98 1007.5
20260504183602 64 238 1.7 4.3 0.00 0.00 0.00 98 1007.5
20260504183301 64 230 0.9 4.3 0.00 0.00 0.00 98 1007.5
20260504183001 64 232 3.5 3.5 0.00 0.00 0.00 98 1007.5
20260504182702 64 228 2.6 3.5 0.00 0.00 0.00 98 1007.5
20260504182401 64 234 1.7 3.5 0.00 0.00 0.00 98 1007.5
20260504182102 64 231 2.6 3.5 0.00 0.00 0.00 98 1007.5
20260504181801 64 216 2.6 3.5 0.00 0.00 0.00 98 1007.5
20260504181502 64 203 2.6 2.6 0.00 0.00 0.00 98 1006.5
20260504181202 64 193 0.9 2.6 0.00 0.00 0.00 98 1006.5
20260504180901 64 182 2.6 2.6 0.00 0.00 0.00 98 1006.5
20260504180602 64 177 1.7 3.5 0.00 0.00 0.00 98 1006.5
20260504180302 65 192 0.0 3.5 0.00 0.00 0.00 98 1006.5
20260504180002 65 196 1.7 3.5 0.00 0.00 0.00 98 1006.5
20260504175102 66 183 0.9 2.6 0.00 0.00 0.00 98 1006.5
20260504174802 66 172 2.6 2.6 0.00 0.00 0.00 98 1006.5
20260504174502 67 175 0.9 1.7 0.00 0.00 0.00 97 1006.5
20260504174202 67 187 0.0 1.7 0.00 0.00 0.00 97 1006.5
20260504173601 67 170 0.9 3.5 0.00 0.00 0.00 97 1006.5
20260504173302 67 163 1.7 3.5 0.00 0.00 0.00 97 1006.5
20260504173001 67 150 0.9 3.5 0.00 0.00 0.00 97 1006.5
20260504172702 68 181 1.7 2.6 0.00 0.00 0.00 97 1006.5
20260504172402 68 182 1.7 2.6 0.00 0.00 0.00 97 1006.5
20260504172101 67 189 0.9 3.5 0.00 0.00 0.00 97 1006.5
20260504171802 67 204 0.0 3.5 0.00 0.00 0.00 97 1006.5
20260504171502 67 198 1.7 3.5 0.00 0.00 0.00 97 1006.5
20260504171201 66 200 3.5 3.5 0.00 0.00 0.00 97 1006.5
20260504170902 66 178 2.6 3.5 0.00 0.00 0.00 97 1006.5
20260504170602 66 174 0.9 3.5 0.00 0.00 0.00 97 1006.5
20260504170301 66 156 1.7 3.5 0.00 0.00 0.00 96 1006.5
20260504160301 71 147 0.0 6.1 0.00 0.00 0.00 90 1006.5
20260504150901 68 145 0.9 2.6 0.00 0.00 0.00 96 1007.5
20260504150601 67 160 0.0 2.6 0.00 0.00 0.00 96 1007.5
20260504150302 67 172 1.7 2.6 0.00 0.00 0.00 95 1007.5
20260504141201 66 178 1.7 3.5 0.00 0.00 0.00 93 1007.5
20260504140902 67 183 2.6 3.5 0.00 0.00 0.00 92 1007.5
20260504140601 67 184 0.9 3.5 0.00 0.00 0.00 91 1007.5
20260504140302 67 193 1.7 3.5 0.00 0.00 0.00 90 1007.5
20260504130301 68 234 5.2 8.7 0.00 0.00 0.00 89 1008.5
20260504120301 67 198 0.9 5.2 0.00 0.00 0.00 98 1008.5
20260504110601 67 152 5.2 5.2 0.00 0.00 0.00 98 1008.5
20260504110302 67 143 2.6 5.2 0.00 0.00 0.00 98 1008.5
20260504100301 69 155 5.2 10.4 0.00 0.00 0.00 97 1008.5
20260504081802 67 141 1.7 3.5 0.00 0.00 0.00 97 1008.5
20260504081501 67 141 1.7 3.5 0.00 0.00 0.00 96 1008.5
20260504081201 67 138 2.6 2.6 0.00 0.00 0.00 96 1008.5
20260504080901 68 137 1.7 2.6 0.00 0.00 0.00 96 1008.5
20260504080602 68 147 1.7 2.6 0.00 0.00 0.00 95 1008.5
20260504070301 68 57 0.0 3.5 0.00 0.00 0.00 98 1008.5
20260504050602 60 345 1.7 1.7 0.00 0.00 0.00 98 1008.5
20260504050301 60 337 0.0 1.7 0.00 0.00 0.00 98 1008.5
20260504050002 60 341 0.9 1.7 0.00 0.00 0.00 98 1008.5
20260504045701 60 347 0.9 1.7 0.00 0.00 0.00 98 1008.5
20260504045401 60 345 0.9 2.6 0.00 0.00 0.00 98 1008.5
20260504045102 60 349 0.9 2.6 0.00 0.00 0.00 98 1008.5
20260504044201 60 1 0.0 1.7 0.00 0.00 0.00 98 1008.5
20260504043901 60 1 0.0 1.7 0.00 0.00 0.00 98 1008.5
20260504043602 60 2 0.0 1.7 0.00 0.00 0.00 98 1008.5
20260504043301 60 3 1.7 1.7 0.00 0.00 0.00 98 1008.5
20260504043002 60 4 1.7 1.7 0.00 0.00 0.00 98 1009.5
20260504042701 60 23 0.9 0.9 0.00 0.00 0.00 98 1009.5
20260504042401 60 314 0.0 0.9 0.00 0.00 0.00 98 1009.5
20260504041801 60 314 0.0 1.7 0.00 0.00 0.00 98 1009.5
20260504041202 60 314 0.0 0.9 0.00 0.00 0.00 98 1009.5
20260504040601 60 325 0.9 1.7 0.00 0.00 0.00 98 1009.5
20260504040002 60 343 1.7 1.7 0.00 0.00 0.00 98 1009.5
20260504035702 60 348 0.9 1.7 0.00 0.00 0.00 98 1009.5
20260504035401 60 356 1.7 1.7 0.00 0.00 0.00 98 1009.5
20260504034800 60 357 0.9 1.7 0.00 0.00 0.00 98 1009.5
20260504034501 60 355 0.9 1.7 0.00 0.00 0.00 98 1009.5
20260504034201 60 353 1.7 1.7 0.00 0.00 0.00 98 1009.5
20260504033901 60 1 1.7 1.7 0.00 0.00 0.00 98 1009.5
20260504033602 60 46 0.0 0.9 0.00 0.00 0.00 98 1009.5
20260504033302 60 46 0.0 0.9 0.00 0.00 0.00 98 1009.5
20260504033002 60 70 0.0 1.7 0.00 0.00 0.00 98 1009.5
20260504032701 59 39 0.9 1.7 0.00 0.00 0.00 98 1009.5
20260504032401 59 16 0.0 1.7 0.00 0.00 0.00 98 1009.5
20260504032101 59 9 0.0 1.7 0.00 0.00 0.00 98 1009.5
20260504031501 59 13 0.9 1.7 0.00 0.00 0.00 98 1009.5
20260504031200 59 24 0.0 1.7 0.00 0.00 0.00 98 1009.5
20260504030901 59 32 0.9 1.7 0.00 0.00 0.00 98 1009.5
20260504030600 59 35 1.7 1.7 0.00 0.00 0.00 98 1009.5
20260504030301 59 40 1.7 1.7 0.00 0.00 0.00 98 1009.5
20260504030002 59 33 1.7 1.7 0.00 0.00 0.00 98 1009.5
20260504025702 59 19 0.9 1.7 0.00 0.00 0.00 98 1009.5
20260504025401 59 20 0.9 1.7 0.00 0.00 0.00 98 1009.5
20260504025101 59 22 0.9 1.7 0.00 0.00 0.00 98 1009.5
20260504024801 60 28 1.7 1.7 0.00 0.00 0.00 98 1009.5
20260504024502 60 39 0.9 1.7 0.00 0.00 0.00 98 1009.5
20260504024202 60 42 1.7 1.7 0.00 0.00 0.00 98 1009.5
20260504023901 60 45 1.7 1.7 0.00 0.00 0.00 98 1009.5
20260504023601 60 45 0.9 1.7 0.00 0.00 0.00 98 1009.5
20260504023302 60 57 0.0 1.7 0.00 0.00 0.00 98 1009.5
20260504023001 60 49 1.7 1.7 0.00 0.00 0.00 98 1009.5
20260504022702 60 33 0.9 1.7 0.00 0.00 0.00 98 1009.5
20260504022401 60 27 1.7 1.7 0.00 0.00 0.00 98 1009.5
20260504022101 60 24 0.9 1.7 0.00 0.00 0.00 98 1009.5
20260504021802 60 24 0.9 1.7 0.00 0.00 0.00 98 1009.5
20260504021501 60 23 1.7 1.7 0.00 0.00 0.00 98 1009.5
20260504021201 60 356 1.7 1.7 0.00 0.00 0.00 98 1009.5
20260504020900 60 348 0.0 2.6 0.00 0.00 0.00 98 1009.5
20260504020300 60 351 1.7 2.6 0.00 0.00 0.00 98 1009.5
20260504020001 60 356 1.7 1.7 0.00 0.00 0.00 98 1009.5
20260504015701 60 16 1.7 1.7 0.00 0.00 0.00 98 1009.5
20260504015400 60 30 0.9 1.7 0.00 0.00 0.00 98 1009.5
20260504015101 60 31 0.0 1.7 0.00 0.00 0.00 98 1009.5
20260504014801 60 18 1.7 1.7 0.00 0.00 0.00 98 1009.5
20260504014201 60 5 1.7 3.5 0.00 0.00 0.00 98 1009.5
20260504013902 60 6 0.9 3.5 0.00 0.00 0.00 98 1009.5
20260504013301 60 359 2.6 3.5 0.00 0.00 0.00 98 1009.5
20260504013002 60 1 2.6 3.5 0.00 0.00 0.00 98 1009.5
20260504012402 60 8 1.7 5.2 0.00 0.00 0.00 98 1009.5
20260504012101 60 8 2.6 5.2 0.00 0.00 0.00 98 1009.5
20260504011500 61 19 3.5 3.5 0.00 0.00 0.00 98 1009.5
20260504011201 61 25 1.7 2.6 0.00 0.00 0.00 98 1009.5
20260504010902 61 19 1.7 2.6 0.00 0.00 0.00 98 1010.5
20260504010601 61 9 0.9 2.6 0.00 0.00 0.00 98 1010.5
20260504010001 61 352 1.7 2.6 0.00 0.00 0.00 98 1010.5
20260504005401 61 348 1.7 2.6 0.00 0.00 0.00 98 1010.5
20260504004800 61 338 0.9 2.6 0.00 0.00 0.00 98 1010.5
20260504003900 61 347 1.7 3.5 0.00 0.00 0.00 98 1009.5
20260504003601 61 344 2.6 3.5 0.00 0.00 0.00 98 1009.5
20260504003301 61 346 1.7 3.5 0.00 0.00 0.00 98 1009.5
20260504003001 61 350 1.7 2.6 0.00 0.00 0.00 98 1009.5
20260504002701 60 356 1.7 2.6 0.00 0.00 0.00 98 1009.5
20260504002400 60 11 1.7 1.7 0.00 0.00 0.00 98 1009.5
20260504001800 60 24 1.7 1.7 0.00 0.00 0.00 98 1009.5
20260504001501 60 13 1.7 1.7 0.00 0.00 0.00 98 1009.5
20260504000901 60 1 1.7 1.7 0.00 0.00 0.00 98 1010.5
20260504000600 60 8 1.7 1.7 0.00 0.00 0.00 98 1010.5
20260504000301 60 22 0.0 1.7 0.00 0.00 0.00 98 1010.5
20260504000001 60 22 0.0 1.7 0.00 0.00 0.00 98 1010.5
20260503235701 60 1 0.0 1.7 0.00 0.00 0.00 98 1010.5
20260503235401 60 1 0.0 1.7 0.00 0.00 0.00 98 1010.5
20260503235101 60 1 0.0 1.7 0.00 0.00 0.00 98 1010.5
20260503234802 60 17 0.0 0.9 0.00 0.00 0.00 98 1010.5
20260503234501 60 358 0.0 1.7 0.00 0.00 0.00 98 1010.5
20260503233601 60 333 0.9 1.7 0.00 0.00 0.00 98 1010.5
20260503233301 60 345 1.7 1.7 0.00 0.00 0.00 98 1010.5
20260503233002 60 4 1.7 1.7 0.00 0.00 0.00 98 1010.5
20260503232401 59 23 1.7 1.7 0.00 0.00 0.00 98 1010.5
20260503232100 59 12 0.9 2.6 0.00 0.00 0.00 98 1010.5
20260503231801 59 1 0.9 2.6 0.00 0.00 0.00 98 1010.5
20260503231500 59 355 1.7 2.6 0.00 0.00 0.00 98 1010.5
20260503231201 59 358 0.9 2.6 0.00 0.00 0.00 98 1010.5
20260503230902 59 1 2.6 2.6 0.00 0.00 0.00 98 1009.5
20260503230602 59 12 1.7 2.6 0.00 0.00 0.00 98 1009.5
20260503230301 59 10 1.7 2.6 0.00 0.00 0.00 98 1009.5
20260503225401 59 16 1.7 2.6 0.00 0.00 0.00 98 1009.5
20260503225101 59 22 2.6 2.6 0.00 0.00 0.00 98 1009.5
20260503224801 59 22 1.7 2.6 0.00 0.00 0.00 98 1009.5
20260503224501 59 28 1.7 2.6 0.00 0.00 0.00 98 1010.5
20260503224200 59 28 0.9 2.6 0.00 0.00 0.00 98 1010.5
20260503223901 59 26 0.9 1.7 0.00 0.00 0.00 98 1010.5
20260503223600 59 19 0.9 1.7 0.00 0.00 0.00 98 1010.5
20260503223001 60 5 1.7 1.7 0.00 0.00 0.00 98 1010.5
20260503222700 60 2 1.7 1.7 0.00 0.00 0.00 98 1010.5
20260503222400 60 4 1.7 1.7 0.00 0.00 0.00 98 1010.5
20260503221801 59 22 0.9 0.9 0.00 0.00 0.00 98 1010.5
20260503221501 59 0 0.0 0.0 0.00 0.00 0.00 98 1010.5
20260503221201 59 45 0.0 0.9 0.00 0.00 0.00 98 1010.5
20260503220601 59 46 0.0 1.7 0.00 0.00 0.00 98 1010.5
20260503220301 59 22 0.0 3.5 0.00 0.00 0.00 98 1010.5
20260503220002 59 20 0.0 3.5 0.00 0.00 0.00 98 1010.5
20260503215701 59 24 1.7 3.5 0.00 0.00 0.00 98 1010.5
20260503215401 59 31 3.5 3.5 0.00 0.00 0.00 98 1010.5
20260503215101 59 33 1.7 1.7 0.00 0.00 0.00 98 1010.5
20260503214801 60 33 1.7 1.7 0.00 0.00 0.00 98 1010.5
20260503214500 60 2 0.9 2.6 0.00 0.00 0.00 98 1010.5
20260503214201 60 339 0.0 2.6 0.00 0.00 0.00 98 1010.5
20260503213901 60 336 0.9 2.6 0.00 0.00 0.00 98 1010.5
20260503213601 60 339 2.6 2.6 0.00 0.00 0.00 98 1010.5
20260503213300 60 349 1.7 3.5 0.00 0.00 0.00 98 1010.5
20260503212701 60 15 0.9 3.5 0.00 0.00 0.00 98 1010.5
20260503212401 60 17 0.9 3.5 0.00 0.00 0.00 98 1010.5
20260503211801 60 13 2.6 3.5 0.00 0.00 0.00 98 1010.5
20260503211501 60 12 0.9 3.5 0.00 0.00 0.00 98 1010.5
20260503210900 60 33 1.7 2.6 0.00 0.00 0.00 98 1010.5
20260503210301 60 32 0.9 2.6 0.00 0.00 0.00 98 1010.5
20260503210002 60 27 0.9 2.6 0.00 0.00 0.00 98 1010.5
20260503205701 60 29 2.6 3.5 0.00 0.00 0.00 98 1010.5
20260503205401 60 14 2.6 3.5 0.00 0.00 0.00 98 1010.5
20260503204801 61 1 1.7 3.5 0.00 0.00 0.00 98 1010.5
20260503204501 61 359 1.7 3.5 0.00 0.00 0.00 98 1010.5
20260503204201 61 356 1.7 2.6 0.00 0.00 0.00 98 1010.5
20260503203600 61 1 1.7 1.7 0.00 0.00 0.00 98 1010.5
20260503203301 61 19 1.7 1.7 0.00 0.00 0.00 98 1010.5
20260503203001 61 33 0.9 2.6 0.00 0.00 0.00 98 1010.5
20260503202700 61 44 0.9 2.6 0.00 0.00 0.00 98 1010.5
20260503202101 61 46 2.6 2.6 0.00 0.00 0.00 98 1010.5
20260503201801 61 43 1.7 2.6 0.00 0.00 0.00 98 1010.5
20260503200600 61 23 0.0 1.7 0.00 0.00 0.00 98 1010.5
20260503200300 61 16 0.9 1.7 0.00 0.00 0.00 98 1010.5
20260503200001 61 4 0.9 1.7 0.00 0.00 0.00 98 1010.5
20260503195701 61 354 0.9 2.6 0.00 0.00 0.00 98 1010.5
20260503195400 61 350 1.7 2.6 0.00 0.00 0.00 98 1010.5
20260503195101 61 359 0.9 2.6 0.00 0.00 0.00 98 1010.5
20260503194801 61 358 0.9 2.6 0.00 0.00 0.00 98 1010.5
20260503194500 61 7 2.6 2.6 0.00 0.00 0.00 98 1010.5
20260503194200 61 8 2.6 2.6 0.00 0.00 0.00 98 1010.5
20260503193901 61 18 2.6 2.6 0.00 0.00 0.00 98 1010.5
20260503193600 61 20 1.7 1.7 0.00 0.00 0.00 98 1010.5
20260503193301 61 18 0.9 1.7 0.00 0.00 0.00 98 1010.5
20260503193001 61 23 0.9 1.7 0.00 0.00 0.00 98 1010.5
20260503192700 61 26 1.7 1.7 0.00 0.00 0.00 98 1010.5
20260503192401 61 30 0.9 1.7 0.00 0.00 0.00 98 1010.5